Location: Camp Creek
(33.9000°N, 111.8167°W)
Time: 11:26:35
(UTC-07:00)

Cosmos 1656 - Visible Passes

Search period start: 20 April 2014 00:00
Search period end: 30 April 2014 00:00
Orbit: 800 x 849 km, 71.1° (Epoch: 18 April)

Date Brightness Start Highest point End Pass type
(mag) Time Alt. Az. Time Alt. Az. Time Alt. Az.
20 Apr 5.9 04:33:36 10° SSE 04:37:41 22° E 04:41:46 10° NE visible
21 Apr 6.1 04:13:50 10° SE 04:17:28 19° E 04:21:05 10° ENE visible
22 Apr 6.2 03:54:13 10° SE 03:57:15 15° E 04:00:17 10° ENE visible
23 Apr 6.3 03:34:52 10° ESE 03:37:02 12° E 03:39:13 10° ENE visible
23 Apr 3.7 05:14:39 10° SSW 05:20:00 64° WNW 05:25:24 10° NNE visible
24 Apr 3.6 04:54:18 10° SSW 04:59:42 76° WNW 05:05:08 10° NNE visible
25 Apr 3.6 04:34:07 11° SSW 04:39:23 90° WNW 04:44:50 10° NNE visible
26 Apr 3.7 04:14:56 17° SSW 04:19:06 76° ESE 04:24:31 10° NNE visible
27 Apr 3.9 03:55:39 25° S 03:58:49 64° ESE 04:04:10 10° NNE visible
28 Apr 4.2 03:36:17 32° SSE 03:38:32 53° ESE 03:43:48 10° NNE visible
29 Apr 4.4 03:16:50 36° SE 03:18:16 44° ESE 03:23:24 10° NE visible
29 Apr 5.1 04:58:18 11° WSW 05:02:05 20° WNW 05:06:05 10° NNW visible
